This demonstration page uses our WeatherBlox Daily Observations layout. Learn more.

Left ArrowRight Arrow

Hourly Observations for December 7, 2022

Temp ( °F °C ) Dew Point ( °F °C ) Humidity (%) Winds ( mph kmh ) Pressure ( in mb ) Visibility ( mi km ) Precip ( " mm )
12:53 am 00:53 Clear 41 5 35 1.7 79 79 NNW 6 9 30.11 1020 10 16 0.00 0.00
1:53 am 01:53 Clear 37 2.8 33 0.6 85 85 Calm 30.11 1020 10 16 0.00 0.00
2:53 am 02:53 Clear 36 2.2 33 0.6 89 89 NNW 3 6 30.12 1020 10 16 0.00 0.00
3:53 am 03:53 Clear 38 3.3 33 0.6 82 82 NNW 5 7 30.11 1020 10 16 0.00 0.00
4:53 am 04:53 Clear 36 2.2 33 0.6 89 89 NW 3 6 30.12 1020 10 16 0.00 0.00
5:53 am 05:53 Clear 34 1.1 31 -0.6 88 88 NNW 5 7 30.13 1020 10 16 0.00 0.00
6:24 am 06:24 Clear 33 0.6 30 -1.1 88 88 N 3 6 30.21 1023 10 16 0.00 0.00
6:53 am 06:53 Clear 32 0 29 -1.7 88 88 Calm 30.14 1021 10 16 0.00 0.00
7:53 am 07:53 Sunny 34 1.1 30 -1.1 85 85 Calm 30.17 1022 10 16 0.00 0.00
8:53 am 08:53 Sunny 37 2.8 33 0.6 85 85 Calm 30.20 1023 10 16 0.00 0.00
9:53 am 09:53 Sunny 43 6.1 35 1.7 73 73 Calm 30.22 1023 10 16 0.00 0.00
10:53 am 10:53 Sunny 47 8.3 35 1.7 63 63 Calm 30.22 1023 10 16 0.00 0.00
11:53 am 11:53 Sunny 50 10 34 1.1 54 54 Calm 30.20 1023 10 16 0.00 0.00
12:53 pm 12:53 Sunny 51 10.6 31 -0.6 46 46 Calm 30.18 1022 10 16 0.00 0.00
1:53 pm 13:53 Sunny 53 11.7 32 0 44 44 SSW 3 6 30.18 1022 10 16 0.00 0.00
2:53 pm 14:53 Sunny 54 12.2 35 1.7 49 49 SSE 8 13 30.17 1022 10 16 0.00 0.00
3:53 pm 15:53 Sunny 53 11.7 36 2.2 52 52 S 7 11 30.18 1022 10 16 0.00 0.00
4:53 pm 16:53 Clear 50 10 37 2.8 61 61 Calm 30.18 1022 10 16 0.00 0.00
5:53 pm 17:53 Clear 45 7.2 37 2.8 74 74 Calm 30.19 1022 10 16 0.00 0.00
6:53 pm 18:53 Partly Cloudy 42 5.6 36 2.2 79 79 Calm 30.21 1023 10 16 0.00 0.00
7:53 pm 19:53 Cloudy 43 6.1 37 2.8 79 79 Calm 30.23 1024 10 16 0.00 0.00
8:53 pm 20:53 Cloudy 44 6.7 37 2.8 76 76 WNW 3 6 30.24 1024 10 16 0.00 0.00
9:53 pm 21:53 Cloudy 44 6.7 37 2.8 76 76 Calm 30.24 1024 10 16 0.00 0.00
10:53 pm 22:53 Cloudy 43 6.1 37 2.8 79 79 NW 5 7 30.25 1025 10 16 0.00 0.00
11:53 pm 23:53 Cloudy 44 6.7 37 2.8 76 76 NNW 3 6 30.26 1025 10 16 0.00 0.00

Powered by AerisWeather